[[{"header":{"parameterUnit":"m.s-1","parameterCategory":1,"la1":30.2991,"la2":30.254,"lo1":-89.0895,"lo2":-89.0444,"dy":0.0017,"dx":0.0017,"nx":28,"ny":28,"refTime":"2024-03-04T09:00:00:Z","depth":0,"parameterNumber":2,"parameterNumberName":"U-component_of_WINDS"},"data":[0,0,0,0,0,0,0,0,0,0,0,0,0,0,0,0,0,0,0,0,0,0,0,0,0,0,0,0,0,0,0,0,0,0,0,0,0,0,0,0,0,0,0,0,0,0,0,0,0,0,0,0,0,0,0,0,0,0,-4.5464,-4.5467,0,-4.5761,-4.5765,-4.5768,-4.5781,-4.5778,-4.5774,-4.5771,-4.6073,-4.6083,-4.6095,0,0,0,0,0,0,0,0,0,0,0,0,0,-4.4906,-4.4916,-4.5464,-4.5468,-4.5471,-4.5761,-4.5765,-4.5769,-4.5782,-4.5778,-4.5773,-4.5769,-4.6069,-4.6082,-4.6096,0,0,0,0,0,0,0,0,0,0,0,0,0,-4.517,-4.492,-4.5463,-4.5513,-4.552,-4.576,-4.5765,-4.577,-4.5783,-4.5777,-4.5772,-4.5767,-4.6064,-4.6081,-4.6098,-4.6307,0,0,-4.6149,-4.6157,0,0,0,0,0,0,0,0,-4.5155,-4.5191,-4.5502,-4.551,-4.5519,-4.5729,-4.5679,-4.595,-4.5784,-4.5683,-4.5771,-4.5765,-4.5962,-4.5987,-4.6054,-4.6321,-4.6334,-4.6151,-4.6161,-4.6168,-4.6173,0,0,0,0,0,0,0,-4.5137,-4.5178,-4.5581,-4.5506,-4.5517,-4.552,-4.5551,-4.573,-4.5848,-4.5691,-4.5693,-4.5728,-4.5966,-4.6038,-4.6061,-4.6338,-4.615,-4.6165,-4.6176,-4.6182,-4.6794,-4.68,0,0,0,0,0,0,-4.5109,-4.5163,-4.5572,-4.559,-4.532,-4.5534,-4.5569,-4.5667,-4.5846,-4.5869,-4.5732,-4.5728,-4.6012,-4.6042,-4.6072,-4.6332,-4.6168,-4.6184,-4.6194,-4.6788,-4.6796,-4.6802,0,0,0,0,0,0,-4.5097,-4.5146,-4.556,-4.5377,-4.543,-4.5549,-4.5658,-4.5675,-4.5748,-4.5877,-4.5898,-4.5785,-4.6009,-4.6048,-4.6249,-4.6342,-4.6192,-4.6207,-4.6781,-4.6791,-4.6799,-4.6851,0,0,0,0,0,0,-4.5081,-4.5141,-4.5222,-4.5379,-4.544,-4.5733,-4.5664,-4.5685,-4.5777,-4.5774,-4.5932,-4.5953,-4.6008,-4.6224,-4.6266,-4.6363,-4.622,-4.6773,-4.6785,-4.6796,-4.6841,-4.6861,-4.6877,0,0,0,0,0,-4.5061,-4.5224,-4.5226,-4.5276,-4.5544,-4.5738,-4.5773,-4.5833,-4.5784,-4.5867,-4.5951,-4.5948,-4.6325,-4.6244,-4.6292,-4.6395,-4.6768,-4.6782,-4.6795,-4.6833,-4.6857,-4.6877,0,0,0,0,0,0,-4.5073,-4.5245,-4.525,-4.5468,-4.5589,-4.574,-4.5846,-4.5855,-4.5991,-4.5983,-4.605,-4.6086,-4.6286,-4.636,-4.6268,-4.6609,-4.6541,-4.6565,-4.6553,-4.6577,-4.6594,-4.6573,-4.6234,0,0,0,0,0,-4.5102,-4.5246,-4.5388,-4.5566,-4.5627,-4.5726,-4.5813,-4.5849,-4.5976,-4.6027,-4.6125,-4.6248,-4.6394,-4.6489,-4.663,-4.6851,-4.6887,-4.6946,-4.6963,-4.6977,-4.6998,-4.7123,-4.7152,-4.6848,-4.6847,-4.6847,0,0,-4.5161,-4.5273,-4.5359,-4.5572,-4.5669,-4.5817,-4.5769,-4.5926,-4.6037,-4.605,-4.6247,-4.6324,-4.6465,-4.6678,-4.6776,-4.6746,-4.709,-4.6995,-4.7005,-4.7019,-4.714,-4.7169,-4.7194,-4.6857,-4.6855,-4.6854,0,0,-4.5346,-4.5444,-4.5606,-4.5705,-4.5854,-4.5919,-4.5958,-4.6109,-4.6161,-4.6359,-4.6373,-4.6505,-4.6755,-4.6856,-4.694,-4.7165,-4.7169,-4.7209,-4.7303,-4.7424,-4.7448,-4.747,-4.7552,-4.7581,-4.7228,-4.7229,-4.7229,0,-4.5401,-4.5626,-4.5687,-4.5846,-4.594,-4.596,-4.6124,-4.6217,-4.6404,-4.6468,-4.6431,-4.6747,-4.6844,-4.7082,-4.7137,-4.7203,-4.7251,-4.7192,-4.744,-4.7462,-4.7483,-4.7563,-4.7594,-4.7233,-4.7232,-4.7232,-4.7231,0,-4.5687,-4.5843,-4.5955,-4.6138,-4.6243,-4.6404,-4.649,-4.6589,-4.6616,-4.6685,-4.6888,-4.7005,-4.7172,-4.723,-4.7257,-4.7473,-4.745,-4.7425,-4.7359,-4.7515,-4.7592,-4.7622,-4.7239,-4.7237,-4.7236,-4.7235,0,0,-4.5889,-4.6105,-4.6145,-4.6229,-4.6396,-4.6517,-4.6678,-4.6843,-4.6929,-4.7056,-4.7195,-4.7407,-4.7386,-4.7482,-4.752,-4.7626,-4.78,-4.7589,-4.7594,-4.7627,-4.8048,-4.8067,-4.8102,-4.7802,-4.7808,-4.7813,-4.8037,0,-4.6094,-4.6385,-4.6445,-4.6696,-4.6841,-4.6863,-4.7004,-4.7121,-4.719,-4.7323,-4.7398,-4.7549,-4.7508,-4.7567,-4.7672,-4.7756,-4.7886,-4.7741,-4.7933,-4.7939,-4.79,-4.8141,-4.8162,-4.8368,-4.8067,-4.8072,-4.8076,0,-4.6373,-4.6511,-4.6777,-4.6926,-4.699,-4.7116,-4.7273,-4.7399,-4.7532,-4.7575,-4.7683,-4.771,-4.788,-4.7803,-4.8038,-4.7938,-4.802,-4.8074,-4.8083,-4.8105,-4.8019,-4.8173,-4.8434,-4.8466,-4.8123,-4.8119,-4.8116,0,-4.6497,-4.6748,-4.6941,-4.7012,-4.719,-4.7279,-4.7357,-4.7486,-4.7582,-4.7718,-4.7781,-4.7934,-4.8019,-4.8137,-4.8206,-4.8144,-4.8437,-4.8365,-4.8478,-4.8477,-4.8541,-4.8537,-4.8822,-4.8589,-4.8588,-4.8588,-4.8587,0,-4.6722,-4.6885,-4.7,-4.7118,-4.7302,-4.7369,-4.7548,-4.7625,-4.774,-4.7874,-4.79,-4.8025,-4.8107,-4.8243,-4.8297,-4.8486,-4.8522,-4.8563,-4.8576,-4.8562,-4.8558,-4.8619,-4.8607,-4.8596,-4.8594,-4.8593,-4.8591,0,-4.6893,-4.6976,-4.7188,-4.734,-4.7382,-4.7511,-4.7641,-4.7757,-4.7826,-4.7996,-4.8039,-4.8147,-4.831,-4.8389,-4.859,-4.8627,-4.8841,-4.8843,-4.8796,-4.8802,-4.8911,-4.8901,-4.9249,-4.9299,-4.9029,-4.9032,-4.9034,0,-4.7032,-4.7158,-4.7325,-4.7418,-4.7499,-4.7647,-4.7745,-4.7816,-4.7918,-4.8081,-4.8177,-4.8341,-4.8477,-4.8735,-4.8832,-4.8986,-4.8994,-4.9105,-4.9017,-4.9001,-4.9,-4.8993,-4.9007,-4.9122,-4.9124,-4.9126,-4.9128,0,-4.7272,-4.7308,-4.7449,-4.7607,-4.7724,-4.7851,-4.7976,-4.8049,-4.814,-4.8253,-4.842,-4.8525,-4.8732,-4.8895,-4.9057,-4.9137,-4.9149,-4.9155,-4.919,-4.9179,-4.9148,-4.9169,-4.8843,-4.9147,-4.9145,-4.9144,-4.9143,-4.9142,-4.7434,-4.7548,-4.7684,-4.7842,-4.7943,-4.806,-4.8177,-4.8262,-4.8403,-4.8578,-4.8611,-4.8789,-4.8921,-4.9139,-4.9225,-4.9365,-4.934,-4.939,-4.9403,-4.9415,-4.9423,-4.9123,-4.9394,-4.9394,-4.9393,-4.9393,-4.9393,0,-4.7678,-4.7767,-4.7911,-4.8086,-4.8211,-4.8211,-4.8349,-4.8453,-4.861,-4.8733,-4.8866,-4.9059,-4.9218,-4.9327,-4.9488,-4.958,-4.959,-4.962,-4.9615,-4.9634,-4.9434,-4.9389,-4.961,-4.961,-4.961,-4.961,-4.9609,-4.9609,-4.782,-4.8014,-4.8066,-4.8311,-4.8398,-4.8575,-4.8654,-4.8762,-4.886,-4.9076,-4.9209,-4.9279,-4.9397,-4.9567,-4.9712,-4.974,-4.98,-4.9831,-4.9859,-4.9671,-4.9648,-4.9626,-4.9585,-4.9843,-4.9843,-5.0049,-5.0051,-5.0052]},{"header":{"parameterUnit":"m.s-1","parameterCategory":1,"la1":30.2991,"la2":30.254,"lo1":-89.0895,"lo2":-89.0444,"dy":0.0017,"dx":0.0017,"nx":28,"ny":28,"refTime":"2024-03-04T09:00:00:Z","depth":0,"parameterNumber":3,"parameterNumberName":"V-component_of_WINDS"},"data":[0,0,0,0,0,0,0,0,0,0,0,0,0,0,0,0,0,0,0,0,0,0,0,0,0,0,0,0,0,0,0,0,0,0,0,0,0,0,0,0,0,0,0,0,0,0,0,0,0,0,0,0,0,0,0,0,0,0,-0.1392,-0.1392,0,-0.1347,-0.1347,-0.1346,-0.1371,-0.1372,-0.1374,-0.1375,-0.1326,-0.1324,-0.1321,0,0,0,0,0,0,0,0,0,0,0,0,0,-0.1496,-0.1494,-0.1392,-0.1392,-0.1391,-0.1347,-0.1347,-0.1346,-0.1371,-0.1372,-0.1374,-0.1375,-0.1327,-0.1324,-0.1321,0,0,0,0,0,0,0,0,0,0,0,0,0,-0.1451,-0.1494,-0.1392,-0.1398,-0.1398,-0.1347,-0.1347,-0.1346,-0.1371,-0.1373,-0.1374,-0.1376,-0.1328,-0.1324,-0.132,-0.126,0,0,-0.1309,-0.1308,0,0,0,0,0,0,0,0,-0.1454,-0.1447,-0.1398,-0.1398,-0.1398,-0.1367,-0.1365,-0.1317,-0.137,-0.1381,-0.1375,-0.1377,-0.1338,-0.1333,-0.1321,-0.1258,-0.1256,-0.1309,-0.1307,-0.1305,-0.1304,0,0,0,0,0,0,0,-0.1457,-0.1449,-0.1374,-0.1397,-0.1397,-0.1402,-0.1398,-0.1356,-0.1349,-0.138,-0.1382,-0.1376,-0.1338,-0.1324,-0.132,-0.1255,-0.1309,-0.1306,-0.1303,-0.1302,-0.1138,-0.1136,0,0,0,0,0,0,-0.146,-0.1452,-0.1376,-0.1373,-0.1431,-0.1399,-0.1394,-0.1375,-0.135,-0.1348,-0.1375,-0.1378,-0.133,-0.1324,-0.1318,-0.1244,-0.1305,-0.1302,-0.1299,-0.114,-0.1138,-0.1135,0,0,0,0,0,0,-0.1462,-0.1453,-0.1378,-0.1413,-0.1404,-0.1395,-0.1373,-0.1373,-0.1359,-0.1346,-0.1344,-0.1362,-0.1331,-0.1323,-0.1274,-0.1243,-0.13,-0.1297,-0.1143,-0.114,-0.1137,-0.1097,0,0,0,0,0,0,-0.1465,-0.1453,-0.1431,-0.1412,-0.1402,-0.1335,-0.1371,-0.1371,-0.1353,-0.1356,-0.1334,-0.1332,-0.1332,-0.1279,-0.127,-0.1239,-0.1294,-0.1146,-0.1141,-0.1138,-0.1101,-0.1093,-0.1086,0,0,0,0,0,-0.1468,-0.1422,-0.143,-0.1421,-0.1374,-0.1333,-0.1327,-0.1329,-0.135,-0.1327,-0.1319,-0.1332,-0.1248,-0.1274,-0.1264,-0.1231,-0.1147,-0.1143,-0.1138,-0.1104,-0.1095,-0.1086,0,0,0,0,0,0,-0.1437,-0.1419,-0.1428,-0.1374,-0.1355,-0.1338,-0.1309,-0.1319,-0.1293,-0.1297,-0.1299,-0.1294,-0.1242,-0.1232,-0.1261,-0.1171,-0.1201,-0.1194,-0.1179,-0.1169,-0.1162,-0.1165,-0.1291,0,0,0,0,0,-0.1424,-0.1393,-0.1379,-0.1333,-0.1323,-0.1317,-0.13,-0.1303,-0.1283,-0.1275,-0.1262,-0.1241,-0.121,-0.1189,-0.116,-0.11,-0.1095,-0.1072,-0.1065,-0.1059,-0.1052,-0.1018,-0.1007,-0.112,-0.112,-0.112,0,0,-0.1396,-0.1383,-0.1363,-0.1326,-0.1312,-0.1279,-0.131,-0.1275,-0.125,-0.1269,-0.1221,-0.1212,-0.1188,-0.1133,-0.1108,-0.1123,-0.102,-0.1053,-0.1048,-0.1044,-0.1012,-0.1001,-0.0992,-0.1116,-0.1117,-0.1118,0,0,-0.1328,-0.1316,-0.1275,-0.126,-0.1238,-0.1234,-0.1225,-0.1205,-0.1199,-0.1152,-0.1165,-0.1135,-0.1082,-0.1064,-0.1048,-0.0973,-0.0984,-0.0963,-0.0923,-0.089,-0.0881,-0.0873,-0.0844,-0.0834,-0.0957,-0.0957,-0.0957,0,-0.1296,-0.1248,-0.1253,-0.1215,-0.1198,-0.1215,-0.1172,-0.1157,-0.1126,-0.1113,-0.113,-0.1063,-0.1048,-0.0988,-0.097,-0.0957,-0.0944,-0.0965,-0.0882,-0.0874,-0.0867,-0.084,-0.0829,-0.0955,-0.0955,-0.0955,-0.0955,0,-0.1209,-0.1175,-0.1145,-0.1115,-0.1094,-0.1055,-0.1052,-0.103,-0.1034,-0.1029,-0.0979,-0.0963,-0.0929,-0.0916,-0.092,-0.0856,-0.0865,-0.0882,-0.0913,-0.0854,-0.0828,-0.0818,-0.0951,-0.0952,-0.0953,-0.0953,0,0,-0.112,-0.1093,-0.1081,-0.1067,-0.1043,-0.1017,-0.0977,-0.0946,-0.0926,-0.0904,-0.0869,-0.0824,-0.0839,-0.0821,-0.0823,-0.0794,-0.0733,-0.0814,-0.0814,-0.0798,-0.0659,-0.0645,-0.0633,-0.0741,-0.0739,-0.0737,-0.066,0,-0.1049,-0.0981,-0.0984,-0.0919,-0.0887,-0.0902,-0.0867,-0.0848,-0.0842,-0.0812,-0.0805,-0.0772,-0.0795,-0.0784,-0.0756,-0.0746,-0.0705,-0.0752,-0.0707,-0.0706,-0.0711,-0.062,-0.0605,-0.0534,-0.0651,-0.0649,-0.0648,0,-0.0958,-0.0933,-0.0866,-0.0846,-0.0832,-0.0801,-0.0771,-0.0744,-0.0722,-0.0719,-0.0698,-0.0705,-0.0663,-0.0696,-0.0638,-0.067,-0.0652,-0.0644,-0.0641,-0.0636,-0.0672,-0.061,-0.0511,-0.05,-0.0632,-0.0634,-0.0635,0,-0.0898,-0.0847,-0.08,-0.0788,-0.0764,-0.0741,-0.073,-0.071,-0.069,-0.0664,-0.0651,-0.062,-0.0602,-0.0578,-0.0575,-0.06,-0.0516,-0.0549,-0.0511,-0.0511,-0.0491,-0.0492,-0.0386,-0.0482,-0.0483,-0.0483,-0.0483,0,-0.0818,-0.0775,-0.0772,-0.0743,-0.0695,-0.0698,-0.0651,-0.0641,-0.0623,-0.0591,-0.0603,-0.0572,-0.0572,-0.0541,-0.0539,-0.049,-0.0482,-0.0477,-0.0477,-0.0475,-0.0476,-0.0462,-0.0467,-0.048,-0.0481,-0.0481,-0.0482,0,-0.0741,-0.0738,-0.0687,-0.0668,-0.0663,-0.0628,-0.0612,-0.0583,-0.0578,-0.0537,-0.0527,-0.0518,-0.0482,-0.0477,-0.0435,-0.0433,-0.0374,-0.038,-0.0381,-0.0381,-0.0343,-0.0346,-0.0223,-0.0206,-0.0315,-0.0314,-0.0313,0,-0.069,-0.0658,-0.0635,-0.0615,-0.0603,-0.057,-0.055,-0.0551,-0.0529,-0.0502,-0.0476,-0.0441,-0.0412,-0.0353,-0.0342,-0.0309,-0.0313,-0.0272,-0.0308,-0.0307,-0.031,-0.0311,-0.0307,-0.0265,-0.0264,-0.0263,-0.0262,0,-0.0598,-0.0598,-0.0569,-0.0539,-0.0514,-0.0491,-0.0468,-0.0451,-0.0449,-0.0424,-0.0387,-0.0365,-0.0321,-0.0285,-0.0253,-0.024,-0.025,-0.0251,-0.024,-0.0237,-0.0239,-0.0235,-0.036,-0.0253,-0.0254,-0.0255,-0.0255,-0.0256,-0.0531,-0.0503,-0.0482,-0.0449,-0.0433,-0.0411,-0.0383,-0.0374,-0.0343,-0.0308,-0.0311,-0.0269,-0.0247,-0.0204,-0.0189,-0.0156,-0.017,-0.0154,-0.015,-0.0146,-0.0141,-0.0245,-0.0151,-0.0151,-0.0151,-0.0151,-0.0151,0,-0.0439,-0.0426,-0.0396,-0.0364,-0.0337,-0.035,-0.0326,-0.0302,-0.0266,-0.0245,-0.0217,-0.0174,-0.0139,-0.0125,-0.0091,-0.0067,-0.007,-0.0057,-0.0058,-0.0055,-0.0132,-0.0144,-0.0055,-0.0055,-0.0055,-0.0055,-0.0055,-0.0055,-0.0387,-0.0339,-0.0336,-0.0279,-0.0266,-0.0226,-0.0211,-0.0191,-0.0174,-0.0125,-0.0096,-0.0088,-0.0069,-0.0033,-0.0002,0.0002,0.0016,0.0031,0.0033,-0.004,-0.0049,-0.0059,-0.007,0.0033,0.0034,0.0107,0.0108,0.0109]}]]